Preview of NWS' New Version of Forecast
This preview is not operational and should not be used for support decisions.
Latest weather observations around

Alabaster, Shelby County Airport (KEET)

Using International System of Units (Switch to English Units)
Date/ Time (CST) Wind (kph) Vis. (km) Weather Sky Cond. Temp (°C) Rel. Humidity Wind Chill (°C) Heat Index (°C) Pressure Precip. (cm)
Air Dwpt 6 hour Altimeter (hPa) Sea level (hPa) 1 hr 3 hr 6 hr
Max Min
Jan 21 21:53 ENE 5 16.09 Clear CLR 1 -9     47% -1   1028.1 1028.3      
Jan 21 20:53 8 16.09 Clear CLR 1 -10     43% -1   1027.8 1028.3      
Jan 21 19:53 ENE 5 16.09 Clear CLR 2 -10     42% 0   1027.8 1028.3      
Jan 21 18:53 ENE 5 16.09 Clear CLR 2 -9     42% 1   1027.8 1028.3      
Jan 21 17:53 ENE 5 16.09 Clear CLR 3 -9     40% 2   1028.5 1028.8      
Jan 21 16:53 NE 5 16.09 Clear CLR 4        % 3   1028.8 1029.1      
Jan 21 15:53 ENE 8 16.09 Clear CLR 7 -10     29% 5   1028.5 1028.9      
Jan 21 14:53 8 16.09 Clear CLR 7 -9     32% 5   1028.8 1028.9      
Jan 21 13:53 N 8 16.09 Clear CLR 6 -8     35% 5   1028.8 1029.1      
Jan 21 12:53 8 16.09 Clear CLR 5 -8     38% 3   1029.5 1029.9      
Jan 21 11:53 5 16.09 Clear CLR 3 -8     44% 2   1030.8 1031      
Jan 21 10:53 9 16.09 Clear CLR 2 -8     47% -1   1031.8 1032      
Jan 21 09:53 9 16.09 Clear CLR 0 -9     51% -3   1031.5 1031.8      
Jan 21 08:53 NE 9 16.09 Clear CLR -2 -8     61% -5   1031.2 1031.4      
Jan 21 07:53 NNE 9 16.09 Clear CLR -3 -8     68% -6   1030.1 1030.6      
Jan 21 06:53 N 5 16.09 Clear CLR -3 -8     71% -6   1029.5 1029.7      
Jan 21 05:53 NNE 5 16.09 Clear CLR -3 -8     71% -6   1027.8 1028.1      
Jan 21 04:53 N 8 16.09 Clear CLR -3 -8     66% -6   1027.1 1027.3      
Jan 21 03:53 N 9 16.09 Clear CLR -3 -7     72% -6   1026.4 1027      
Jan 21 02:53 N 5 16.09 Clear CLR -2 -7     69% -4   1026.4 1026.7      
Jan 21 01:53 N 9 16.09 Clear CLR -2 -7     66% -5   1026.1 1026.5      
Jan 21 00:53 N 11 16.09 Clear CLR -1 -7     66% -5   1026.1 1026.4      
Jan 20 23:53 N 9 16.09 Clear CLR -1 -6     69% -4   1025.7 1026.1      
Jan 20 22:53 NNW 5 16.09 Clear CLR -1 -6     66% -2   1025.1 1025.6      
Jan 20 21:53 N 9 16.09 Clear CLR 0 -7     61% -3   1024.7 1025.1      
Jan 20 20:53 N 8 16.09 Clear CLR 0 -6     64% -3   1024.7 1024.9      
Jan 20 19:53 NNW 5 16.09 Clear CLR 0 -6     64% -2   1025.1 1025.5      
Jan 20 18:53 NNW 5 16.09 Clear CLR 1 -6     63% -1   1024.7 1024.9      
Jan 20 17:53 NNW 5 16.09 Clear CLR 1 -6     59% -1   1023.4 1023.8      
Jan 20 16:53 NNW 13 16.09 Clear CLR 2 -6     56% -2   1023.4 1023.5      
Jan 20 15:53   16.09 Mostly Clear FEW031 2 -5     59%     1022.7 1022.9      
Jan 20 15:27 NW 17 16.09 Mostly Cloudy BKN031 2 -4     64% -3   1022.4        
Jan 20 14:53 NNW 13 16.09 Mostly Cloudy BKN026 2 -4     64% -1   1021.7 1022.1      
Jan 20 14:21 NW 18 16.09 Mostly Cloudy BKN028 1 -4     69% -4   1022        
Jan 20 14:13 NW 21 16.09 Partly Cloudy SCT026 1 -4     67% -4   1022        
Jan 20 13:53 NW 21 16.09 Mostly Cloudy BKN025 2 -4     64% -3   1021.7 1021.9      
Jan 20 12:53 NW 18 16.09 Cloudy OVC022 1 -4     69% -4   1021.3 1021.7      
Jan 20 11:53 NW 24 16.09 Cloudy OVC020 0 -4     75% -6   1021.7 1022.1      
Jan 20 10:53 NNW 21 16.09 Cloudy OVC020 1 -4     72% -5   1022 1022.3      
Jan 20 09:53 NNW 22 16.09 Cloudy OVC021 1 -3     75% -5   1021.7 1021.9      
Jan 20 08:53 NNW 21 16.09 Cloudy OVC019 1 -3     75% -5   1020.3 1020.5      
Jan 20 07:53 NNW 15 16.09 Cloudy OVC018 0 -3     81% -4   1019 1019.1      
Jan 20 06:53 NW 26 16.09 Cloudy OVC016 0 -3     81% -6   1018 1018      
Jan 20 05:53 NW 24 16.09 Cloudy OVC020 0 -3     78% -6   1016.6 1016.8      
Jan 20 04:53 NW 17 16.09 Cloudy OVC023 1 -3     75% -4   1015.2 1015.2      
Jan 20 03:53 NW 28 16.09 Cloudy OVC022 1 -4     72% -5   1014.2 1014.2      
Jan 20 02:53 NW 26 16.09 Cloudy OVC022 1 -3     75% -5   1013.9 1013.8      
Jan 20 01:53 NW 21 16.09 Cloudy OVC022 1 -3     75% -4   1012.9 1012.8      
Jan 20 00:53 NW 24 16.09 Cloudy OVC024 1 -3     72% -4   1011.9 1011.8      
Jan 19 23:53 WNW 28 16.09 Cloudy FEW015 OVC022 2 -1     79% -3   1010.8 1010.6 0   0
Jan 19 23:21 NNW 18 16.09 Cloudy SCT017 BKN025 OVC033 3 0     79% -1   1010.2        
Jan 19 22:53 NW 18 16.09 Cloudy FEW021 SCT025 OVC031 3 1     82% -1   1009.5 1009.4      
Jan 19 22:44 NW 22 16.09 Cloudy FEW016 SCT023 OVC031 4 1     79% -1   1009.5        
Jan 19 22:27 NW 28 16.09 Cloudy BKN019 OVC025 4 1     79% -1   1009.2        
Jan 19 22:18 NW 28 16.09 Cloudy BKN013 OVC021 5 3     86% 0   1008.8        
Jan 19 22:11 WNW 28 16.09 Cloudy SCT013 OVC023 6 2     79% 1   1008.5        
Jan 19 21:53 WNW 22 16.09 Cloudy FEW010 BKN014 OVC021 6 4     86% 2   1007.8 1007.7 0    
Jan 19 20:53 W 18 9.66 Light Rain and Fog/Mist OVC011 8 6     89% 5   1006.4 1006.2 0 0  
Jan 19 20:20 W 26 16.09 Cloudy BKN013 OVC018 9 7     89% 5   1005.8        
Jan 19 19:53 WNW 28 16.09 Cloudy BKN019 OVC023 11 7     79%     1005.1 1004.8      
Jan 19 19:17 WNW 18 16.09 Cloudy SCT017 BKN022 OVC031 12 9     86%     1004.4        
Jan 19 19:03 WNW 22 16.09 Cloudy SCT014 SCT023 OVC030 12 9     86%     1003.7        
Jan 19 18:53 W 15 16.09 Cloudy FEW010 BKN014 OVC029 12 11     90%     1003.7 1003.3 0    
Jan 19 18:20 WNW 17 4.83 Light Rain and Fog/Mist SCT006 BKN012 OVC036 13 12     90%     1003.1   0    
Jan 19 18:12 WNW 17 3.22 Heavy Rain and Fog/Mist BKN006 BKN010 OVC023 13 13     100%     1002.7   0    
Jan 19 17:53 SW 8 16.09 Mostly Cloudy BKN009 13 12     96%     1002 1001.6     2
Jan 19 17:48 SSW 11 16.09 Mostly Cloudy BKN009 13 12     94%     1002        
Jan 19 16:53 SW 9 16.09 Partly Cloudy FEW013 SCT020 13 12     93%     1001 1000.8      
Jan 19 16:38 WSW 11 16.09 Mostly Cloudy SCT012 BKN020 14 12     89%     1001        
Jan 19 15:53 SW 11 16.09 Cloudy BKN014 OVC110 14 13     93%     1002 1001.6 0    
Jan 19 15:18 S 11 12.87 Light Rain SCT008 BKN042 OVC095 13 13     100%     1001.7   0    
Jan 19 15:11 S 11 9.66 Light Rain and Fog/Mist SCT004 BKN013 OVC090 13 13     100%     1001.4   0    
Jan 19 14:53 8 11.27 Light Rain BKN004 BKN013 OVC080 13 13     97%     1001.4 1001 1 2  
Jan 19 14:48 S 5 4.83 Light Rain and Fog/Mist BKN004 BKN013 OVC075 13 13     100%     1001   1    
Jan 19 14:42 5 2.41 Rain and Fog/Mist BKN006 BKN020 OVC080 13 13     100%     1001.4   1    
Jan 19 14:29 SSW 5 2.41 Rain and Fog/Mist SCT008 BKN017 OVC060 13 13     97%     1002   0    
Jan 19 14:15 S 9 2.41 Heavy Rain and Fog/Mist FEW008 BKN034 OVC060 13 13     100%     1002   0    
Jan 19 14:08 Calm 1.21 Rain and Fog/Mist FEW010 BKN029 OVC050 13 13     100%     1002   0    
Jan 19 14:01 8 1.21 Heavy Rain and Fog/Mist FEW008 BKN036 OVC050 13 13     100%     1002.4   0    
Jan 19 13:59 5 1.21 Heavy Rain and Fog/Mist FEW010 BKN029 OVC050 13 13     100%     1002.4   0    
Jan 19 13:53 SSW 8 2.41 Rain and Fog/Mist SCT029 BKN037 OVC050 13 13     97%     1002.7 1002.3 1    
Jan 19 13:37 8 1.61 Heavy Rain and Fog/Mist FEW012 BKN029 OVC050 13 13     97%     1002.4   1    
Jan 19 13:32 11 0.4 Heavy Rain and Fog FEW012 BKN025 OVC055 13 13     97%     1002   1    
Jan 19 13:22 WNW 22 1.21 Heavy Rain and Fog/Mist SCT013 BKN026 OVC095 16 15     93%     1002   0    
Jan 19 13:19 WSW 24 2.82 Heavy Rain and Fog/Mist SCT013 BKN041 OVC100 18 16     90%     1002.4   0    
Jan 19 12:53 S 30 6.44 Light Rain and Fog/Mist SCT018 BKN045 OVC095 18 16     90%     1002 1001.5 0    
Jan 19 12:30 S 28 11.27 Light Rain SCT018 BKN029 OVC070 18 17     93%     1002.7   0    
Jan 19 12:17 S 24 16.09 Light Rain SCT018 BKN050 OVC070 18 17     90%     1003.1   0    
Jan 19 11:53 S 26 12.87 Light Rain SCT015 BKN026 OVC055 18 17     90%     1004.1 1003.6 0   1
Jan 19 10:53 S 11 16.09 Cloudy FEW012 BKN018 OVC030 17 16     93%     1006.4 1006.1 0    
Jan 19 10:32 S 11 14.48 Light Rain FEW009 BKN014 OVC023 17 16     93%     1007.5   0    
Jan 19 09:53 S 15 16.09 Light Rain FEW011 BKN026 OVC033 17 16     93%     1008.1 1007.7 0    
Jan 19 09:35 S 17 16.09 Cloudy SCT007 BKN016 OVC031 17 16     93%     1008.1   0    
Jan 19 09:14 S 17 4.83 Rain and Fog/Mist OVC007 16 16     97%     1008.5   0    
Jan 19 08:53 S 17 2.82 Rain and Fog/Mist OVC009 16 15     93%     1008.5 1008.2 0 1  
Jan 19 08:41 S 17 16.09 Cloudy OVC010 16 15     96%     1008.5   0    
Jan 19 08:32 S 18 4.02 Rain and Fog/Mist SCT007 BKN010 OVC016 16 15     96%     1008.8   0    
Jan 19 08:18 S 15 4.83 Light Rain and Fog/Mist BKN009 BKN016 OVC023 16 15     96%     1008.8   0    
Jan 19 08:04 SSE 18 2.01 Heavy Rain and Fog/Mist SCT006 BKN010 OVC016 16 15     96%     1008.8   0    
Jan 19 07:53 SSE 18 2.82 Heavy Rain and Fog/Mist BKN006 OVC021 15 15     100%     1009.2 1008.9 0    
Jan 19 07:35 S 15 6.44 Rain and Fog/Mist OVC007 16 15     96%     1009.5   0    
Jan 19 07:09 S 18 6.44 Light Rain and Fog/Mist OVC005 15 14     96%     1009.5   0    
Jan 19 06:53 SSE 18 9.66 Light Rain and Fog/Mist OVC004 15 14     96%     1009.2 1009 0    
Jan 19 06:11 S 15 6.44 Fog/Mist OVC002 14 14     97%     1010.2        
Jan 19 05:53 S 15 4.02 Fog/Mist OVC002 14 14     100%     1009.8 1009.7 0   0
Jan 19 05:36 SSE 11 3.22 Fog/Mist OVC003 14 14     100%     1009.8   0    
Jan 19 05:17 SSE 8 6.44 Fog/Mist OVC003 13 13     100%     1010.2   0    
Jan 19 05:04 SSE 13 3.22 Rain and Fog/Mist OVC003 13 13     100%     1010.2   0    
Jan 19 04:53 SSE 13 4.83 Light Rain and Fog/Mist OVC004 13 13     100%     1010.2 1009.8 0    
Jan 19 04:46 SSE 13 6.44 Light Rain and Fog/Mist OVC004 13 13     100%     1010.2   0    
Jan 19 03:53 SSE 11 8.05 Fog/Mist OVC006 13 12     96%     1011.2 1010.7      
Jan 19 03:18 SSE 11 8.05 Fog/Mist BKN005 OVC013 12 12     100%     1011.5        
Jan 19 02:53 ESE 5 6.44 Fog/Mist BKN004 OVC016 12 12     100%     1011.9 1011.5      
Jan 19 02:35 8 4.83 Fog/Mist OVC002 12 12     100%     1012.5        
Jan 19 02:28 SE 9 4.02 Fog/Mist OVC001 12 12     100%     1012.5        
Jan 19 01:53 ESE 9 1.61 Fog/Mist OVC001 12 12     100%     1013.6 1013.4      
Jan 19 01:32 SE 8 1.61 Fog/Mist OVC002 12 12     100%     1014.2        
Jan 19 00:53 SE 9 0.8 Fog VV002 11 11     100%     1014.9 1014.6      
Jan 19 00:31 SE 8 1.21 Fog/Mist VV002 11 11     100%     1014.9        
Jan 19 00:13 8 2.82 Fog/Mist OVC002 11 11     100%     1014.9        
Jan 18 23:53 5 8.05 Fog/Mist BKN003 11 11     97%     1015.6 1015.2      
Jan 18 23:49 SE 8 8.05 Fog/Mist BKN004 11 11     100%     1015.6        
Jan 18 23:39 Calm 8.05 Fog/Mist SCT004 BKN029 11 11     97%     1015.6        
Jan 18 23:11 ESE 5 9.66 Fog/Mist BKN030 11 11     97%     1015.6        
Jan 18 22:53 ESE 5 9.66 Fog/Mist BKN029 OVC033 11 11     97%     1015.6 1015.5      
May 15 03:53 Calm 14.48 Clear CLR 22 19     87%   22 1015.2 1014.4      
May 14 10:53 9 16.09 Clear CLR 32 18     44%   32 1017.6 1016.8      
May 14 04:53 Calm 11.27 Clear   19 18     93%     1016.6 1015.8      
May 13 22:53 Calm 12.87 Clear CLR 23 20     84%   23 1018 1017.1      
May 13 08:53 Calm 14.48 Clear CLR 27 17     54%   27 1021.3 1020.6      
May 12 02:53 Calm 12.87 Clear CLR 18 17     90%     1019 1018.4      
May 11 16:53 WSW 8 16.09 Clear CLR 31 13     35%   30 1018 1017.1      
Jun 12 05:53 Calm 16.09 Mostly Clear FEW023 22 22     97%   23 1020.7 1020      
Jun 11 18:53 SSE 8 16.09 Clear CLR 30 21     57%   32 1018.6 1017.7      
Jun 11 11:53 SE 9 16.09 Clear CLR 29 19     53%   31 1021 1020.3      
Jun 11 10:53 ESE 11 16.09 Mostly Clear FEW031 28 22     67%   31 1021.3 1020.5      
Jun 11 01:53 Calm 16.09 Clear   22 18     81%   22 1018.6 1017.9      
Jun 10 03:53 Calm 16.09 Mostly Cloudy BKN060 BKN075 19 18     96%     1016.3 1015.4      
Jun 09 21:53 Calm 16.09 Clear CLR 21 19     87%     1015.2 1014.7      
Jun 08 19:53 Calm 16.09 Clear CLR 22 18     76%   22 1011.5 1010.9      
Jun 07 07:53 N 9 16.09 Clear CLR 21 16     71%     1009.8 1009.2      
Jun 06 08:20 NNW 8 4.83 Light Rain and Fog/Mist SCT006 OVC017 22 22     100%   23 1009.5   1    
Jun 06 07:28 Calm 8.05 Light Rain and Fog/Mist BKN013 BKN017 OVC043 22 22     100%   23 1009.5   0    
Jun 06 06:10 NW 9 2.82 Rain and Fog/Mist BKN013 BKN020 OVC024 21 21     100%     1009.5   1    
Jun 06 05:05 Calm 4.83 Rain and Fog/Mist FEW031 BKN042 OVC070 22 22     100%   23 1008.8   0    
Jun 05 21:53 Calm 16.09 Clear   22 22     100%   23 1010.2 1009.2   0